Regional Weather Roundup
Issued by NWS Charleston, SC

Current Version | Previous Version | Graphics & Text | Print | Product List | Glossary On
Versions: 1 2 3 4 5 6 7 8 9 10 11 12 13 14 15 16 17 18 19 20 21 22 23 24 25 26 27 28 29 30 31 32 33 34 35 36 37 38 39 40 41 42 43 44 45 46 47 48 49 50
000
ASUS42 KCHS 200025
RWRCHS

REGIONAL WEATHER ROUNDUP
NATIONAL WEATHER SERVICE CHARLESTON SC
800 PM EDT SAT APR 19 2014

NOTE: "FAIR" INDICATES FEW OR NO CLOUDS BELOW 12,000 FEET WITH NO
SIGNIFICANT WEATHER AND/OR OBSTRUCTIONS TO VISIBILITY.

NOT ALL STATIONS ARE QUALITY CONTROLLED BY THE NATIONAL
WEATHER SERVICE. USE DATA WITH CAUTION...ESPECIALLY
DEWPOINT OBSERVATIONS.

SCZ027-030-031-034>040-042>050-200100-
...SOUTH CAROLINA...

CITY           SKY/WX    TMP DP  RH WIND       PRES   REMARKS
N CHARLESTON   CLOUDY    58  54  86 N12G21    30.02R
6HR MIN TEMP:  58; 6HR MAX TEMP:  62; 6HR PCP:  0.01;

WATERFRONT PRK   N/A     59 N/A N/A N15         N/A
FORT JOHNSON     N/A     57  57 100 NE9G16    30.05R
MOUNT PLEASANT CLOUDY   N/A N/A N/A N7G17     30.00R FOG
JOHNS ISLAND   CLOUDY    59  57  94 N14       30.00S
PINOPOLIS        N/A     57  54  88 NE15G22   29.94S
MONCKS CORNER  CLOUDY    57  55  94 NE8G18    30.03R
SUMMERVILLE    NOT AVBL
BEAUFORT MCAS  CLOUDY    57  55  94 NE10      30.01R
6HR MIN TEMP:  58; 6HR MAX TEMP:  63;

BEAUFORT ARPT  CLOUDY    57  57 100 N12G17    30.00R
HILTON HEAD IS CLOUDY    57  57 100 N15G21    29.99R FOG
GEORGETOWN     NOT AVBL
WALTERBORO     HVY RAIN  54 N/A N/A N8        30.05R
ORANGEBURG     LGT RAIN  54  50  86 NE14      30.08R FOG
6HR MIN TEMP:  54; 6HR MAX TEMP:  58; 6HR PCP:  0.02;

BARNWELL       DRIZZLE   55  54  94 NE14      30.08R
AIKEN          LGT RAIN  54  54 100 NE18G25   30.13R
MANNING        CLOUDY    54 N/A N/A N9        30.07R
KINGSTREE      NOT AVBL
COLUMBIA       CLOUDY    55  51  86 NE16G23   30.11R
6HR MIN TEMP:  55; 6HR MAX TEMP:  58; 6HR PCP:  0.03;

SUMTER         LGT RAIN  52  50  93 NE15G23   30.09R
6HR MIN TEMP:  52; 6HR MAX TEMP:  56; 6HR PCP:  0.06;

FLORENCE       CLOUDY    52  49  89 NE16G24   30.10R
6HR MIN TEMP:  52; 6HR MAX TEMP:  56; 6HR PCP: TRACE;

MYRTLE BEACH   CLOUDY    57  52  82 N17G23    30.02F
N MYRTLE BEACH CLOUDY    56  51  84 NE13G35   30.02S
6HR MIN TEMP:  56; 6HR MAX TEMP:  60;


$$

GAZ063-065-086>088-099>101-113>116-118-119-134-136>141-150-200100-
...GEORGIA...

CITY           SKY/WX    TMP DP  RH WIND       PRES   REMARKS
SAVANNAH ARPT  DRIZZLE   58  55  90 N12       30.01R
6HR MIN TEMP:  58; 6HR MAX TEMP:  64; 6HR PCP: TRACE;

HUNTER AAF     LGT RAIN  57  57 100 VRB3      30.01R FOG
6HR MIN TEMP:  58; 6HR MAX TEMP:  63; 6HR PCP:  0.02;

FORT STEWART   HVY RAIN  57  57 100 N10       30.00S FOG
6HR MIN TEMP:  58; 6HR MAX TEMP:  62; 6HR PCP:  0.38;

STATESBORO     NOT AVBL
SYLVANIA       LGT RAIN  58  55  88 NE7       30.06R
CLAXTON        DRIZZLE   59  59 100 NE12      30.04F
THOMSON        CLOUDY    54  54 100 NE10G21   30.16R
AUGUSTA-BUSH   LGT RAIN  55  51  86 N13       30.11R FOG
6HR MIN TEMP:  56; 6HR MAX TEMP:  59; 6HR PCP: TRACE;

AUGUSTA-DANIEL CLOUDY    56  51  84 NE15G24   30.11R
SWAINSBORO     CLOUDY    55  55 100 N9        30.06R
VIDALIA        RAIN      57  55  94 N7        30.05R
ALMA           CLOUDY    58  54  86 N9        30.00S
6HR MIN TEMP:  58; 6HR MAX TEMP:  61; 6HR PCP: TRACE;

WAYCROSS       NOT AVBL
JESUP          TSTM      57  57 100 NE5       29.99R
BRUNSWICK      CLOUDY    63  61  94 N8        29.97R THUNDER
SAINT SIMONS   LGT RAIN  62  61  96 N13       29.95R
6HR MIN TEMP:  62; 6HR MAX TEMP:  63; 6HR PCP:  0.04;


$$

SCZ027-028-034-036>038-045-046-048>050-GAZ119-141-200100-
...LAKE AND SUPPLEMENTAL COASTAL OBSERVATIONS...

STATION/POSITION TIME  TEMP    WIND        PRES    WAVE   SWELL
                       AIR SEA DIR/SP/G            HT/PER HT/PER/DIR
                 (UTC) (F)     (DEG/KT/KT) (MB)    (FT/S) (FT/S/D)
UPR LAKE MARION  NOT AVBL
WINYAH BAY       0000   58      20/  8     1016.0S
LAKE MURRAY      0000   53      30/  6/  9 1019.3S
ACE BASIN NERRS  0000   57      20/  5     1015.0S
FORT PULASKI     0000   58 59  350/ 15/ 18 1015.6R
SAPELO ISLAND    0000   60      10/ 13     1015.0R

$$

ANZ835-935-AMZ111-154-330-350-352-354-374-450-454-472-200100-
...C-MAN AND BUOY OBSERVATIONS...

STATION/POSITION TIME  TEMP    WIND        PRES    WAVE   SWELL
                       AIR SEA DIR/SP/G            HT/PER HT/PER/DIR
                 (UTC) (F)     (DEG/KT/KT) (MB)    (FT/S) (FT/S/D)
FOLLY BEACH CMAN 0000   59      10/ 15/ 18 1015.8S
BUOY 41004       NOT AVBL
BUOY 41008       0000   62 64   30/ 23/ 29 1013.5R   7/ 7   2/110/ 9
5E ST. MARYS GA  0000      65                N/A     6/ 5   2/ 80/11
FRYING PAN BUOY  0000   62 66   40/ 29/ 39 1013.4R  10/ 7   2/ 80/11
BUOY 41025       NOT AVBL
CAPE LOOKOUT NC  0000   54      10/ 19/ 26 1017.9F
BUOY 41002       NOT AVBL
BUOY 41010       0000   76 76  170/ 14/ 16 1011.5F   6/ 6   5/170/ 6
BUOY 41012       NOT AVBL
ST AUGUSTINE FL  0000   66     270/ 11/ 15 1013.6R
CAPERS NEARSHORE NOT AVBL
FRIPP NEARSHORE  2300   59      30/ 16/ 17   N/A


$$



USA.gov is the U.S. government's official web portal to all federal, state and local government web resources and services.